OK2ZI Weather Reports


time (UTC)temp
C
wind
direction
speed
KPH
gust
KPH
rain 1hr
cm
rain 24hr
cm
rain mn
cm
humidity
%
barometer
mb
20260507185807 11 267 14.5 14.5 0.00 0.00 0.00 76 1011.0
20260507185606 11 267 12.9 12.9 0.00 0.00 0.00 76 1011.0
20260507185407 10 264 8.0 8.0 0.00 0.00 0.00 75 1010.0
20260507185206 10 264 11.3 11.3 0.00 0.00 0.00 76 1010.0
20260507185010 10 267 9.7 9.7 0.00 0.00 0.00 76 1010.0
20260507184807 10 267 11.3 11.3 0.00 0.00 0.00 78 1010.0
20260507184607 10 268 14.5 14.5 0.00 0.00 0.00 79 1010.0
20260507184407 10 268 0.0 0.0 0.00 0.00 0.00 80 1010.0
20260507184207 10 268 0.0 0.0 0.00 0.00 0.00 80 1010.0
20260507184013 10 268 8.0 8.0 0.00 0.00 0.00 81 1010.0
20260507183807 10 268 0.0 0.0 0.00 0.00 0.00 80 1010.0
20260507183206 10 268 0.0 0.0 0.00 0.00 0.00 80 1010.0
20260507183014 10 268 9.7 9.7 0.00 0.00 0.00 80 1010.0
20260507182609 10 268 0.0 0.0 0.00 0.00 0.00 80 1010.0
20260507182407 10 268 0.0 0.0 0.00 0.00 0.00 80 1010.0
20260507182206 10 268 0.0 0.0 0.00 0.00 0.00 80 1010.0
20260507182012 10 268 0.0 0.0 0.00 0.00 0.00 80 1010.0
20260507181807 10 268 0.0 0.0 0.00 0.00 0.00 80 1010.0
20260507181610 11 268 8.0 8.0 0.00 0.00 0.00 79 1010.0
20260507181211 11 268 0.0 0.0 0.00 0.00 0.00 78 1010.0
20260507181013 11 268 0.0 0.0 0.00 0.00 0.00 77 1010.0
20260507180808 11 268 0.0 0.0 0.00 0.00 0.00 77 1010.0
20260507180608 11 268 9.7 9.7 0.00 0.00 0.00 77 1010.0
20260507180408 11 268 8.0 8.0 0.00 0.00 0.00 77 1010.0
20260507180208 12 268 9.7 9.7 0.00 0.00 0.00 76 1010.0
20260507180036 12 268 0.0 0.0 0.00 0.00 0.00 75 1010.0
20260507175607 12 268 0.0 0.0 0.00 0.00 0.00 72 1010.0
20260507175207 13 268 9.7 9.7 0.00 0.00 0.00 69 1010.0
20260507174607 13 268 0.0 0.0 0.00 0.00 0.00 67 1010.0
20260507174408 13 268 12.9 12.9 0.00 0.00 0.00 66 1010.0
20260507174207 13 268 11.3 11.3 0.00 0.00 0.00 66 1010.0
20260507174018 13 268 9.7 9.7 0.00 0.00 0.00 66 1009.0
20260507173808 13 268 8.0 8.0 0.00 0.00 0.00 66 1009.0
20260507173608 13 268 0.0 0.0 0.00 0.00 0.00 65 1009.0
20260507173408 13 268 9.7 9.7 0.00 0.00 0.00 64 1010.0
20260507173207 14 268 11.3 11.3 0.00 0.00 0.00 64 1010.0
20260507173024 14 268 8.0 8.0 0.00 0.00 0.00 63 1009.0
20260507172808 14 268 9.7 9.7 0.00 0.00 0.00 63 1009.0
20260507172607 14 268 12.9 12.9 0.00 0.00 0.00 61 1009.0
20260507172207 14 268 0.0 0.0 0.00 0.00 0.00 60 1010.0
20260507172015 14 268 0.0 0.0 0.00 0.00 0.00 59 1009.0
20260507171607 14 268 9.7 9.7 0.00 0.00 0.00 58 1009.0
20260507171406 14 268 12.9 12.9 0.00 0.00 0.00 57 1009.0
20260507171011 14 280 22.5 22.5 0.00 0.00 0.00 56 1009.0
20260507170806 14 269 12.9 12.9 0.00 0.00 0.00 57 1009.0
20260507170607 14 270 22.5 22.5 0.00 0.00 0.00 57 1009.0
20260507170206 15 269 12.9 12.9 0.00 0.00 0.00 55 1009.0
20260507170019 15 274 24.1 24.1 0.00 0.00 0.00 55 1009.0
20260507165807 15 276 14.5 14.5 0.00 0.00 0.00 55 1009.0
20260507165606 15 276 30.6 32.2 0.00 0.00 0.00 54 1009.0
20260507165407 15 276 24.1 24.1 0.00 0.00 0.00 53 1009.0
20260507165011 16 276 22.5 22.5 0.00 0.00 0.00 51 1009.0
20260507164806 16 263 11.3 11.3 0.00 0.00 0.00 49 1009.0
20260507164606 16 222 22.5 22.5 0.00 0.00 0.00 49 1009.0
20260507164407 16 228 30.6 32.2 0.00 0.00 0.00 50 1009.0
20260507164207 16 288 24.1 24.1 0.00 0.00 0.00 49 1009.0
20260507164015 17 234 22.5 22.5 0.00 0.00 0.00 48 1009.0
20260507163806 17 306 27.4 29.0 0.00 0.00 0.00 48 1009.0
20260507163406 17 282 22.5 22.5 0.00 0.00 0.00 47 1009.0
20260507163207 17 276 29.0 30.6 0.00 0.00 0.00 47 1009.0
20260507163018 17 241 14.5 14.5 0.00 0.00 0.00 48 1009.0
20260507162807 17 258 27.4 29.0 0.00 0.00 0.00 45 1009.0
20260507162407 17 252 14.5 14.5 0.00 0.00 0.00 47 1009.0
20260507162206 17 263 35.4 37.0 0.00 0.00 0.00 48 1009.0
20260507162011 16 237 32.2 35.4 0.00 0.00 0.00 48 1009.0
20260507161606 16 218 12.9 12.9 0.00 0.00 0.00 50 1009.0
20260507161407 16 264 24.1 24.1 0.00 0.00 0.00 49 1009.0
20260507161207 16 275 25.7 27.4 0.00 0.00 0.00 51 1009.0
20260507160806 17 253 27.4 29.0 0.00 0.00 0.00 51 1009.0
20260507160606 17 273 22.5 22.5 0.00 0.00 0.00 52 1009.0
20260507160407 17 240 12.9 12.9 0.00 0.00 0.00 51 1009.0
20260507160207 17 228 12.9 12.9 0.00 0.00 0.00 50 1009.0
20260507160019 17 242 29.0 30.6 0.00 0.00 0.00 50 1009.0
20260507155806 17 229 22.5 22.5 0.00 0.00 0.00 50 1009.0
20260507155606 17 234 11.3 11.3 0.00 0.00 0.00 51 1009.0
20260507155406 17 292 29.0 30.6 0.00 0.00 0.00 51 1009.0
20260507155206 17 276 37.0 40.2 0.00 0.00 0.00 51 1009.0
20260507155011 17 258 32.2 33.8 0.00 0.00 0.00 51 1009.0
20260507154806 17 240 40.2 48.3 0.00 0.00 0.00 52 1009.0
20260507154607 17 276 27.4 29.0 0.00 0.00 0.00 50 1009.0
20260507154207 17 264 35.4 37.0 0.00 0.00 0.00 50 1009.0
20260507154011 17 237 14.5 14.5 0.00 0.00 0.00 50 1009.0
20260507153824 17 298 66.0 74.0 0.00 0.00 0.00 52 1009.0
20260507153606 17 296 30.6 32.2 0.00 0.00 0.00 53 1009.0
20260507153406 17 279 27.4 29.0 0.00 0.00 0.00 51 1009.0
20260507153016 17 270 27.4 29.0 0.00 0.00 0.00 52 1009.0
20260507152807 17 276 45.1 45.1 0.00 0.00 0.00 51 1009.0
20260507152607 17 282 35.4 38.6 0.00 0.00 0.00 52 1009.0
20260507152406 17 267 32.2 35.4 0.00 0.00 0.00 52 1009.0
20260507152206 17 276 22.5 22.5 0.00 0.00 0.00 52 1009.0
20260507152011 17 269 12.9 12.9 0.00 0.00 0.00 51 1009.0
20260507151806 17 287 24.1 24.1 0.00 0.00 0.00 52 1009.0
20260507151606 17 272 27.4 29.0 0.00 0.00 0.00 54 1009.0
20260507151406 17 287 35.4 40.2 0.00 0.00 0.00 53 1009.0
20260507151011 17 291 38.6 38.6 0.00 0.00 0.00 51 1009.0
20260507150806 17 306 45.1 45.1 0.00 0.00 0.00 49 1009.0
20260507150606 18 289 53.1 61.2 0.00 0.00 0.00 48 1009.0
20260507150407 18 274 35.4 38.6 0.00 0.00 0.00 48 1009.0
20260507150019 18 277 29.0 30.6 0.00 0.00 0.00 49 1009.0
20260507145807 17 308 32.2 35.4 0.00 0.00 0.00 49 1009.0
20260507145606 17 288 22.5 22.5 0.00 0.00 0.00 50 1009.0
20260507145406 17 288 29.0 30.6 0.00 0.00 0.00 50 1009.0
20260507145206 17 293 33.8 35.4 0.00 0.00 0.00 53 1009.0
20260507145010 17 265 46.7 48.3 0.00 0.00 0.00 53 1009.0
20260507144407 18 288 38.6 45.1 0.00 0.00 0.00 51 1009.0
20260507144206 18 295 29.0 32.2 0.00 0.00 0.00 50 1009.0
20260507143807 19 288 25.7 27.4 0.00 0.00 0.00 46 1009.0
20260507143607 19 287 14.5 14.5 0.00 0.00 0.00 45 1009.0
20260507143407 19 286 48.3 49.9 0.00 0.00 0.00 45 1009.0
20260507143207 19 270 35.4 37.0 0.00 0.00 0.00 46 1009.0
20260507142806 18 293 35.4 37.0 0.00 0.00 0.00 49 1009.0
20260507142406 18 278 25.7 27.4 0.00 0.00 0.00 53 1009.0
20260507142206 18 285 30.6 32.2 0.00 0.00 0.00 51 1009.0
20260507142016 18 270 12.9 12.9 0.00 0.00 0.00 50 1009.0
20260507141806 17 269 8.0 8.0 0.00 0.00 0.00 52 1009.0
20260507141606 17 270 22.5 22.5 0.00 0.00 0.00 54 1009.0
20260507141407 17 258 29.0 30.6 0.00 0.00 0.00 57 1009.0
20260507141207 17 264 24.1 27.4 0.00 0.00 0.00 57 1009.0
20260507141010 17 254 22.5 22.5 0.00 0.00 0.00 54 1009.0
20260507140806 17 186 9.7 9.7 0.00 0.00 0.00 56 1009.0
20260507140409 17 243 12.9 12.9 0.00 0.00 0.00 55 1009.0
20260507140205 17 246 0.0 0.0 0.00 0.00 0.00 55 1009.0
20260507140022 17 246 0.0 0.0 0.00 0.00 0.00 55 1009.0
20260507135806 17 246 0.0 0.0 0.00 0.00 0.00 53 1009.0
20260507135606 17 246 11.3 11.3 0.00 0.00 0.00 50 1009.0
20260507135407 17 236 12.9 12.9 0.00 0.00 0.00 48 1009.0
20260507135207 18 186 24.1 24.1 0.00 0.00 0.00 48 1009.0
20260507135011 18 210 22.5 22.5 0.00 0.00 0.00 50 1009.0
20260507134807 18 174 22.5 22.5 0.00 0.00 0.00 49 1009.0
20260507134606 18 174 24.1 24.1 0.00 0.00 0.00 44 1009.0
20260507134406 18 180 22.5 22.5 0.00 0.00 0.00 44 1009.0
20260507134010 18 173 25.7 27.4 0.00 0.00 0.00 46 1009.0
20260507133806 18 192 12.9 12.9 0.00 0.00 0.00 45 1009.0
20260507133606 18 204 22.5 22.5 0.00 0.00 0.00 44 1009.0
20260507133407 18 168 14.5 14.5 0.00 0.00 0.00 44 1009.0
20260507133207 18 168 22.5 22.5 0.00 0.00 0.00 44 1009.0
20260507133014 18 174 25.7 27.4 0.00 0.00 0.00 43 1009.0
20260507132605 18 192 35.4 37.0 0.00 0.00 0.00 44 1009.0
20260507132407 17 180 25.7 27.4 0.00 0.00 0.00 46 1009.0
20260507132207 17 179 14.5 14.5 0.00 0.00 0.00 46 1009.0
20260507132012 17 173 14.5 14.5 0.00 0.00 0.00 48 1009.0
20260507131607 17 179 32.2 35.4 0.00 0.00 0.00 51 1009.0
20260507131406 17 192 32.2 35.4 0.00 0.00 0.00 52 1009.0
20260507131205 18 168 22.5 22.5 0.00 0.00 0.00 52 1009.0
20260507131016 18 162 30.6 32.2 0.00 0.00 0.00 45 1009.0
20260507130807 18 174 14.5 14.5 0.00 0.00 0.00 44 1009.0
20260507130606 18 186 14.5 14.5 0.00 0.00 0.00 44 1009.0
20260507130208 18 186 14.5 14.5 0.00 0.00 0.00 44 1009.0
20260507130019 18 185 22.5 22.5 0.00 0.00 0.00 44 1009.0
20260507125805 18 185 22.5 22.5 0.00 0.00 0.00 44 1009.0
20260507125605 18 184 22.5 22.5 0.00 0.00 0.00 48 1009.0
20260507125406 18 239 29.0 30.6 0.00 0.00 0.00 47 1009.0
20260507124807 19 264 30.6 32.2 0.00 0.00 0.00 43 1009.0
20260507124405 20 282 25.7 27.4 0.00 0.00 0.00 42 1009.0
20260507124009 19 198 14.5 14.5 0.00 0.00 0.00 44 1009.0
20260507123805 19 224 14.5 14.5 0.00 0.00 0.00 44 1009.0
20260507123606 20 174 27.4 29.0 0.00 0.00 0.00 42 1009.0
20260507123405 20 256 33.8 35.4 0.00 0.00 0.00 43 1009.0
20260507123207 21 196 25.7 27.4 0.00 0.00 0.00 40 1009.0
20260507122807 20 192 49.9 51.5 0.00 0.00 0.00 40 1009.0
20260507122607 20 179 35.4 40.2 0.00 0.00 0.00 42 1009.0
20260507122405 19 216 27.4 29.0 0.00 0.00 0.00 46 1009.0
20260507122206 19 218 24.1 24.1 0.00 0.00 0.00 42 1009.0
20260507122011 19 216 24.1 24.1 0.00 0.00 0.00 44 1009.0
20260507121806 19 229 24.1 27.4 0.00 0.00 0.00 46 1009.0
20260507121606 19 186 22.5 22.5 0.00 0.00 0.00 46 1009.0
20260507121407 19 185 30.6 32.2 0.00 0.00 0.00 44 1009.0
20260507121011 19 168 37.0 41.8 0.00 0.00 0.00 43 1009.0
20260507120806 20 174 37.0 40.2 0.00 0.00 0.00 42 1009.0
20260507120605 20 180 25.7 27.4 0.00 0.00 0.00 44 1009.0
20260507120406 20 216 22.5 22.5 0.00 0.00 0.00 43 1009.0
20260507120021 20 174 25.7 27.4 0.00 0.00 0.00 42 1009.0
20260507115806 20 168 30.6 32.2 0.00 0.00 0.00 42 1009.0
20260507115407 20 186 45.1 49.9 0.00 0.00 0.00 41 1009.0
20260507115206 21 186 54.7 70.8 0.00 0.00 0.00 41 1009.0
20260507115008 21 198 29.0 30.6 0.00 0.00 0.00 40 1009.0
20260507114807 21 186 69.2 78.9 0.00 0.00 0.00 40 1009.0
20260507114606 20 162 32.2 35.4 0.00 0.00 0.00 41 1009.0
20260507114407 20 253 37.0 40.2 0.00 0.00 0.00 43 1009.0
20260507114015 20 168 32.2 35.4 0.00 0.00 0.00 41 1009.0
20260507113812 20 174 14.5 14.5 0.00 0.00 0.00 40 1009.0
20260507113607 21 174 32.2 35.4 0.00 0.00 0.00 40 1009.0
20260507113405 21 180 12.9 12.9 0.00 0.00 0.00 40 1009.0
20260507113016 20 223 14.5 14.5 0.00 0.00 0.00 42 1009.0
20260507112806 19 228 22.5 22.5 0.00 0.00 0.00 46 1009.0
20260507112606 19 162 29.0 30.6 0.00 0.00 0.00 44 1009.0
20260507112407 19 162 0.0 0.0 0.00 0.00 0.00 44 1009.0
20260507112206 19 179 14.5 14.5 0.00 0.00 0.00 45 1009.0
20260507112012 20 234 33.8 35.4 0.00 0.00 0.00 43 1009.0
20260507111807 20 190 35.4 38.6 0.00 0.00 0.00 44 1009.0
20260507111606 20 186 35.4 38.6 0.00 0.00 0.00 43 1009.0
20260507111407 20 173 66.0 74.0 0.00 0.00 0.00 41 1009.0
20260507111207 20 166 25.7 27.4 0.00 0.00 0.00 43 1009.0
20260507111011 20 174 24.1 24.1 0.00 0.00 0.00 42 1009.0
20260507110807 20 198 62.8 69.2 0.00 0.00 0.00 40 1009.0
20260507110607 20 214 22.5 22.5 0.00 0.00 0.00 43 1009.0
20260507110407 20 186 27.4 29.0 0.00 0.00 0.00 43 1009.0
20260507110017 19 168 38.6 38.6 0.00 0.00 0.00 43 1009.0
20260507105807 20 173 46.7 49.9 0.00 0.00 0.00 42 1009.0
20260507105615 20 204 35.4 37.0 0.00 0.00 0.00 40 1009.0
20260507105011 20 210 29.0 30.6 0.00 0.00 0.00 43 1009.0
20260507104607 20 156 32.2 35.4 0.00 0.00 0.00 44 1009.0
20260507104405 20 202 29.0 30.6 0.00 0.00 0.00 44 1009.0
20260507104207 20 196 25.7 27.4 0.00 0.00 0.00 44 1009.0
20260507104012 20 215 32.2 35.4 0.00 0.00 0.00 44 1009.0
20260507103807 20 196 32.2 35.4 0.00 0.00 0.00 46 1009.0
20260507103407 19 208 14.5 14.5 0.00 0.00 0.00 47 1009.0
20260507103207 18 216 25.7 27.4 0.00 0.00 0.00 45 1009.0
20260507103035 18 173 14.5 14.5 0.00 0.00 0.00 50 1009.0
20260507102808 18 210 22.5 22.5 0.00 0.00 0.00 47 1009.0
20260507102610 19 267 37.0 41.8 0.00 0.00 0.00 48 1009.0
20260507102207 19 192 14.5 14.5 0.00 0.00 0.00 46 1009.0
20260507102012 20 184 14.5 14.5 0.00 0.00 0.00 45 1009.0
20260507101806 19 216 12.9 12.9 0.00 0.00 0.00 49 1009.0
20260507101406 19 186 12.9 12.9 0.00 0.00 0.00 46 1009.0
20260507101012 19 198 24.1 24.1 0.00 0.00 0.00 50 1009.0
20260507100611 19 180 11.3 11.3 0.00 0.00 0.00 48 1009.0
20260507100407 19 180 24.1 24.1 0.00 0.00 0.00 47 1009.0
20260507100206 18 210 33.8 35.4 0.00 0.00 0.00 51 1009.0
20260507100020 18 217 9.7 9.7 0.00 0.00 0.00 50 1009.0
20260507095807 18 210 14.5 14.5 0.00 0.00 0.00 48 1009.0
20260507095606 17 236 14.5 14.5 0.00 0.00 0.00 50 1009.0
20260507095406 17 222 12.9 12.9 0.00 0.00 0.00 53 1009.0
20260507095206 17 204 27.4 29.0 0.00 0.00 0.00 53 1009.0
20260507095009 17 204 12.9 12.9 0.00 0.00 0.00 53 1009.0
20260507094807 17 180 37.0 41.8 0.00 0.00 0.00 53 1009.0
20260507094606 17 230 40.2 45.1 0.00 0.00 0.00 52 1009.0
20260507094406 18 216 29.0 30.6 0.00 0.00 0.00 50 1009.0
20260507094206 18 222 24.1 24.1 0.00 0.00 0.00 52 1009.0
20260507093805 18 220 14.5 14.5 0.00 0.00 0.00 52 1009.0
20260507093404 19 292 22.5 22.5 0.00 0.00 0.00 51 1009.0
20260507093207 18 198 22.5 22.5 0.00 0.00 0.00 48 1009.0
20260507093013 18 198 24.1 24.1 0.00 0.00 0.00 48 1009.0
20260507092805 18 174 32.2 35.4 0.00 0.00 0.00 49 1009.0
20260507092606 18 185 29.0 30.6 0.00 0.00 0.00 52 1009.0
20260507092405 17 196 12.9 12.9 0.00 0.00 0.00 48 1009.0
20260507092206 17 180 12.9 12.9 0.00 0.00 0.00 54 1009.0
20260507092016 17 222 32.2 35.4 0.00 0.00 0.00 54 1009.0
20260507091807 17 237 22.5 22.5 0.00 0.00 0.00 56 1009.0
20260507091607 17 258 27.4 29.0 0.00 0.00 0.00 55 1009.0
20260507091405 17 186 22.5 22.5 0.00 0.00 0.00 54 1009.0
20260507091205 18 222 32.2 33.8 0.00 0.00 0.00 51 1009.0
20260507091127 18 162 12.9 12.9 0.00 0.00 0.00 53 1009.0
20260507090810 17 202 11.3 11.3 0.00 0.00 0.00 54 1009.0
20260507090220 16 270 22.5 22.5 0.00 0.00 0.00 58 1009.0
20260507090024 16 173 22.5 22.5 0.00 0.00 0.00 58 1009.0
20260507085817 16 240 14.5 14.5 0.00 0.00 0.00 60 1009.0
20260507085615 16 258 30.6 32.2 0.00 0.00 0.00 60 1009.0
20260507085422 17 180 22.5 22.5 0.00 0.00 0.00 60 1009.0
20260507085241 16 174 14.5 14.5 0.00 0.00 0.00 60 1009.0
20260507085033 16 222 22.5 22.5 0.00 0.00 0.00 62 1009.0
20260507084715 16 228 12.9 12.9 0.00 0.00 0.00 62 1009.0
20260507084406 16 178 12.9 12.9 0.00 0.00 0.00 61 1009.0
20260507084209 16 198 22.5 22.5 0.00 0.00 0.00 61 1009.0
20260507084029 16 210 22.5 22.5 0.00 0.00 0.00 61 1009.0
20260507083853 16 222 35.4 38.6 0.00 0.00 0.00 59 1009.0
20260507083655 16 210 11.3 11.3 0.00 0.00 0.00 62 1009.0
20260507083406 15 210 27.4 29.0 0.00 0.00 0.00 65 1009.0
20260507083210 15 222 11.3 11.3 0.00 0.00 0.00 65 1009.0
20260507083019 15 222 0.0 0.0 0.00 0.00 0.00 64 1009.0
20260507082630 15 168 14.5 14.5 0.00 0.00 0.00 64 1009.0
20260507082211 15 210 9.7 9.7 0.00 0.00 0.00 65 1009.0
20260507081841 15 246 25.7 27.4 0.00 0.00 0.00 64 1009.0
20260507081640 15 196 27.4 29.0 0.00 0.00 0.00 65 1009.0
20260507081427 15 192 22.5 22.5 0.00 0.00 0.00 64 1009.0
20260507081012 15 269 25.7 27.4 0.00 0.00 0.00 66 1009.0
20260507080807 15 210 25.7 27.4 0.00 0.00 0.00 67 1009.0
20260507080625 15 216 22.5 22.5 0.00 0.00 0.00 66 1009.0
20260507080217 15 242 14.5 14.5 0.00 0.00 0.00 67 1009.0
20260507080035 15 258 24.1 24.1 0.00 0.00 0.00 67 1009.0
20260507075843 15 286 22.5 22.5 0.00 0.00 0.00 67 1009.0
20260507075406 14 198 12.9 12.9 0.00 0.00 0.00 69 1009.0
20260507074807 14 168 22.5 22.5 0.00 0.00 0.00 68 1009.0
20260507074606 14 234 14.5 14.5 0.00 0.00 0.00 70 1009.0
20260507074407 14 204 12.9 12.9 0.00 0.00 0.00 70 1009.0
20260507074207 13 236 14.5 14.5 0.00 0.00 0.00 70 1009.0
20260507074011 13 204 12.9 12.9 0.00 0.00 0.00 72 1009.0
20260507073606 13 204 24.1 24.1 0.00 0.00 0.00 70 1009.0
20260507073406 13 222 25.7 27.4 0.00 0.00 0.00 71 1009.0
20260507073207 13 216 22.5 22.5 0.00 0.00 0.00 71 1009.0
20260507073015 13 234 32.2 35.4 0.00 0.00 0.00 69 1009.0
20260507072807 13 234 24.1 24.1 0.00 0.00 0.00 71 1009.0
20260507072606 13 216 33.8 35.4 0.00 0.00 0.00 70 1009.0
20260507072407 13 228 24.1 24.1 0.00 0.00 0.00 71 1009.0
20260507072205 14 230 27.4 29.0 0.00 0.00 0.00 70 1009.0
20260507072011 14 258 37.0 40.2 0.00 0.00 0.00 71 1009.0
20260507071807 14 228 27.4 29.0 0.00 0.00 0.00 69 1009.0
20260507071607 14 162 24.1 27.4 0.00 0.00 0.00 69 1009.0
20260507071407 14 204 24.1 24.1 0.00 0.00 0.00 70 1009.0
20260507071206 14 180 29.0 30.6 0.00 0.00 0.00 70 1009.0
20260507071009 13 216 27.4 29.0 0.00 0.00 0.00 72 1009.0
20260507070607 13 174 27.4 29.0 0.00 0.00 0.00 72 1009.0
20260507070405 13 204 27.4 29.0 0.00 0.00 0.00 71 1009.0
20260507070022 13 174 14.5 14.5 0.00 0.00 0.00 73 1009.0
20260507065805 13 230 14.5 14.5 0.00 0.00 0.00 73 1009.0
20260507065606 13 234 27.4 29.0 0.00 0.00 0.00 74 1009.0
20260507065407 13 204 12.9 12.9 0.00 0.00 0.00 75 1008.0
20260507065207 13 216 22.5 22.5 0.00 0.00 0.00 74 1008.0
20260507065011 13 174 30.6 32.2 0.00 0.00 0.00 75 1008.0
20260507064807 13 236 29.0 30.6 0.00 0.00 0.00 74 1008.0
20260507064606 12 210 14.5 14.5 0.00 0.00 0.00 75 1008.0
20260507064407 12 218 30.6 32.2 0.00 0.00 0.00 74 1008.0
20260507064207 12 198 12.9 12.9 0.00 0.00 0.00 76 1008.0
20260507064011 12 204 27.4 29.0 0.00 0.00 0.00 75 1008.0
20260507063806 12 210 27.4 29.0 0.00 0.00 0.00 75 1008.0
20260507063610 13 216 33.8 35.4 0.00 0.00 0.00 75 1008.0
20260507063407 13 229 22.5 22.5 0.00 0.00 0.00 75 1008.0
20260507063207 13 228 14.5 14.5 0.00 0.00 0.00 76 1008.0
20260507063016 12 204 24.1 24.1 0.00 0.00 0.00 75 1008.0
20260507062806 12 222 27.4 29.0 0.00 0.00 0.00 76 1008.0
20260507062407 12 228 14.5 14.5 0.00 0.00 0.00 77 1008.0
20260507062207 12 186 22.5 22.5 0.00 0.00 0.00 77 1008.0
20260507062012 12 222 14.5 14.5 0.00 0.00 0.00 78 1008.0
20260507061807 12 210 22.5 22.5 0.00 0.00 0.00 78 1008.0
20260507061605 12 230 14.5 14.5 0.00 0.00 0.00 78 1008.0
20260507061407 12 222 25.7 27.4 0.00 0.00 0.00 78 1008.0
20260507061011 12 235 27.4 29.0 0.00 0.00 0.00 79 1008.0
20260507060806 12 240 11.3 11.3 0.00 0.00 0.00 79 1008.0
20260507060407 12 240 22.5 22.5 0.00 0.00 0.00 77 1008.0
20260507060207 12 234 12.9 12.9 0.00 0.00 0.00 78 1008.0
20260507060022 12 234 8.0 8.0 0.00 0.00 0.00 79 1008.0
20260507055806 12 222 22.5 22.5 0.00 0.00 0.00 79 1008.0
20260507055606 12 174 12.9 12.9 0.00 0.00 0.00 79 1008.0
20260507055407 12 198 14.5 14.5 0.00 0.00 0.00 80 1008.0
20260507055207 12 198 12.9 12.9 0.00 0.00 0.00 80 1008.0
20260507055012 12 222 14.5 14.5 0.00 0.00 0.00 80 1008.0
20260507054806 12 204 24.1 24.1 0.00 0.00 0.00 80 1008.0
20260507054606 12 222 9.7 9.7 0.00 0.00 0.00 81 1008.0
20260507054407 11 186 14.5 14.5 0.00 0.00 0.00 81 1008.0
20260507054207 11 192 14.5 14.5 0.00 0.00 0.00 81 1008.0
20260507054011 11 204 22.5 22.5 0.00 0.00 0.00 81 1008.0
20260507053807 11 198 22.5 22.5 0.00 0.00 0.00 81 1008.0
20260507053606 11 186 14.5 14.5 0.00 0.00 0.00 82 1008.0
20260507053406 11 216 14.5 14.5 0.00 0.00 0.00 81 1008.0
20260507053206 11 204 14.5 14.5 0.00 0.00 0.00 82 1008.0
20260507053015 11 186 22.5 22.5 0.00 0.00 0.00 81 1008.0
20260507052806 11 216 25.7 27.4 0.00 0.00 0.00 82 1008.0
20260507052605 11 216 27.4 29.0 0.00 0.00 0.00 82 1008.0
20260507052406 11 204 25.7 27.4 0.00 0.00 0.00 84 1008.0
20260507052207 11 180 22.5 22.5 0.00 0.00 0.00 83 1008.0
20260507052013 11 174 25.7 27.4 0.00 0.00 0.00 83 1008.0
20260507051807 11 204 14.5 14.5 0.00 0.00 0.00 83 1008.0
20260507051606 11 204 14.5 14.5 0.00 0.00 0.00 83 1008.0
20260507051407 11 174 25.7 27.4 0.00 0.00 0.00 83 1008.0
20260507051206 11 198 24.1 24.1 0.00 0.00 0.00 83 1008.0
20260507051011 11 168 24.1 24.1 0.00 0.00 0.00 84 1008.0
20260507050806 11 174 12.9 12.9 0.00 0.00 0.00 83 1008.0
20260507050606 11 298 14.5 14.5 0.00 0.00 0.00 84 1008.0
20260507050407 11 216 27.4 29.0 0.00 0.00 0.00 84 1007.0
20260507050205 11 204 22.5 22.5 0.00 0.00 0.00 83 1007.0
20260507050021 11 180 24.1 24.1 0.00 0.00 0.00 84 1007.0
20260507045806 11 186 14.5 14.5 0.00 0.00 0.00 84 1007.0
20260507045606 11 198 22.5 22.5 0.00 0.00 0.00 84 1007.0
20260507045406 11 192 12.9 12.9 0.00 0.00 0.00 84 1007.0
20260507045207 11 222 22.5 22.5 0.00 0.00 0.00 84 1007.0
20260507044407 11 174 29.0 30.6 0.00 0.00 0.00 83 1007.0
20260507044207 11 168 22.5 22.5 0.00 0.00 0.00 84 1007.0
20260507044011 11 174 22.5 22.5 0.00 0.00 0.00 84 1007.0
20260507043807 11 198 22.5 22.5 0.00 0.00 0.00 84 1007.0
20260507043607 11 186 27.4 29.0 0.00 0.00 0.00 84 1007.0
20260507043407 11 204 22.5 22.5 0.00 0.00 0.00 84 1007.0
20260507043207 11 204 14.5 14.5 0.00 0.00 0.00 84 1007.0
20260507043015 11 186 30.6 32.2 0.00 0.00 0.00 85 1007.0
20260507042807 11 210 14.5 14.5 0.00 0.00 0.00 84 1007.0
20260507042614 11 192 14.5 14.5 0.00 0.00 0.00 85 1007.0
20260507042407 11 204 27.4 29.0 0.00 0.00 0.00 85 1007.0
20260507042206 11 204 14.5 14.5 0.00 0.00 0.00 85 1007.0
20260507042010 11 210 12.9 12.9 0.00 0.00 0.00 86 1007.0
20260507041808 11 198 12.9 12.9 0.00 0.00 0.00 86 1007.0
20260507041606 11 216 11.3 11.3 0.00 0.00 0.00 86 1007.0
20260507041406 11 222 14.5 14.5 0.00 0.00 0.00 86 1007.0
20260507041206 11 228 14.5 14.5 0.00 0.00 0.00 87 1007.0
20260507041011 11 204 11.3 11.3 0.00 0.00 0.00 87 1007.0
20260507040806 11 222 11.3 11.3 0.00 0.00 0.00 88 1007.0
20260507040606 11 228 9.7 9.7 0.00 0.00 0.00 88 1007.0
20260507040407 11 228 22.5 22.5 0.00 0.00 0.00 87 1007.0
20260507040206 11 234 12.9 12.9 0.00 0.00 0.00 88 1007.0
20260507040021 11 234 12.9 12.9 0.00 0.00 0.00 88 1007.0
20260507035806 11 222 14.5 14.5 0.00 0.00 0.00 89 1007.0
20260507035606 11 222 12.9 12.9 0.00 0.00 0.00 89 1007.0
20260507035406 11 216 9.7 9.7 0.00 0.00 0.00 90 1007.0
20260507035010 11 198 12.9 12.9 0.00 0.00 0.00 89 1007.0
20260507034807 11 210 11.3 11.3 0.00 0.00 0.00 90 1007.0
20260507034605 11 222 14.5 14.5 0.00 0.00 0.00 89 1007.0
20260507034406 11 180 11.3 11.3 0.00 0.00 0.00 89 1007.0
20260507034206 11 198 14.5 14.5 0.00 0.00 0.00 89 1007.0
20260507034010 11 168 22.5 22.5 0.00 0.00 0.00 89 1007.0
20260507033806 11 198 14.5 14.5 0.00 0.00 0.00 89 1007.0
20260507033606 11 174 14.5 14.5 0.00 0.00 0.00 89 1007.0
20260507033407 11 216 22.5 22.5 0.00 0.00 0.00 89 1007.0
20260507033206 11 174 24.1 24.1 0.00 0.00 0.00 90 1007.0
20260507033015 11 174 22.5 22.5 0.00 0.00 0.00 90 1007.0
20260507032806 11 168 12.9 12.9 0.00 0.00 0.00 90 1007.0
20260507032606 11 180 14.5 14.5 0.00 0.00 0.00 90 1007.0
20260507032406 11 174 14.5 14.5 0.00 0.00 0.00 90 1006.0
20260507032206 11 174 24.1 24.1 0.00 0.00 0.00 90 1006.0
20260507032012 11 186 8.0 8.0 0.00 0.00 0.00 90 1006.0
20260507031807 11 198 12.9 12.9 0.00 0.00 0.00 90 1006.0
20260507031606 11 198 14.5 14.5 0.00 0.00 0.00 90 1006.0
20260507031407 11 204 12.9 12.9 0.00 0.00 0.00 90 1006.0
20260507031206 11 174 12.9 12.9 0.00 0.00 0.00 90 1006.0
20260507031010 11 216 22.5 22.5 0.00 0.00 0.00 90 1006.0
20260507030806 11 216 29.0 30.6 0.00 0.00 0.00 90 1006.0
20260507030606 11 222 35.4 37.0 0.00 0.00 0.00 90 1006.0
20260507030206 11 222 12.9 12.9 0.00 0.00 0.00 90 1006.0
20260507025806 11 228 25.7 27.4 0.00 0.00 0.00 90 1006.0
20260507025606 11 236 32.2 35.4 0.00 0.00 0.00 90 1006.0
20260507025407 11 240 25.7 27.4 0.00 0.00 0.00 91 1006.0
20260507025206 11 228 22.5 22.5 0.00 0.00 0.00 91 1006.0
20260507025011 11 210 25.7 27.4 0.00 0.00 0.00 91 1006.0
20260507024806 11 228 24.1 24.1 0.00 0.00 0.00 91 1006.0
20260507024605 11 228 38.6 45.1 0.00 0.00 0.00 92 1006.0
20260507024407 11 240 22.5 22.5 0.00 0.00 0.00 92 1006.0
20260507024010 11 228 27.4 29.0 0.00 0.00 0.00 92 1006.0
20260507023806 11 222 25.7 27.4 0.00 0.00 0.00 92 1006.0
20260507023606 11 222 22.5 22.5 0.00 0.00 0.00 92 1006.0
20260507023206 11 228 24.1 27.4 0.00 0.00 0.00 92 1006.0
20260507023013 11 228 22.5 22.5 0.00 0.00 0.00 92 1006.0
20260507022806 11 228 22.5 22.5 0.00 0.00 0.00 92 1006.0
20260507022407 10 234 14.5 14.5 0.00 0.00 0.00 92 1006.0
20260507022206 10 204 32.2 33.8 0.00 0.00 0.00 92 1006.0
20260507022009 10 240 32.2 35.4 0.00 0.00 0.00 92 1006.0
20260507021806 10 228 27.4 29.0 0.00 0.00 0.00 92 1006.0
20260507021606 10 228 27.4 29.0 0.00 0.00 0.00 93 1006.0
20260507021407 10 204 22.5 22.5 0.00 0.00 0.00 94 1006.0
20260507021206 10 228 25.7 27.4 0.00 0.00 0.00 94 1006.0
20260507020806 10 204 22.5 22.5 0.00 0.00 0.00 94 1006.0
20260507020606 10 210 22.5 22.5 0.00 0.00 0.00 94 1006.0
20260507020407 10 216 22.5 22.5 0.00 0.00 0.00 93 1006.0
20260507020206 10 186 12.9 12.9 0.00 0.00 0.00 93 1006.0
20260507020021 10 180 12.9 12.9 0.00 0.00 0.00 93 1006.0
20260507015807 10 180 14.5 14.5 0.00 0.00 0.00 93 1006.0
20260507015407 10 174 14.5 14.5 0.00 0.00 0.00 93 1006.0
20260507015206 10 180 12.9 12.9 0.00 0.00 0.00 93 1006.0
20260507015010 10 180 12.9 12.9 0.00 0.00 0.00 93 1006.0
20260507014806 10 180 12.9 12.9 0.00 0.00 0.00 93 1006.0
20260507014606 10 186 11.3 11.3 0.00 0.00 0.00 93 1006.0
20260507014407 10 186 9.7 9.7 0.00 0.00 0.00 94 1006.0
20260507014207 10 186 12.9 12.9 0.00 0.00 0.00 94 1006.0
20260507014011 10 192 9.7 9.7 0.00 0.00 0.00 94 1006.0
20260507013805 10 192 12.9 12.9 0.00 0.00 0.00 94 1006.0
20260507013606 10 192 12.9 12.9 0.00 0.00 0.00 94 1006.0
20260507013406 10 234 0.0 0.0 0.00 0.00 0.00 94 1006.0
20260507013206 10 234 0.0 0.0 0.00 0.00 0.00 93 1006.0
20260507013013 10 234 0.0 0.0 0.00 0.00 0.00 93 1006.0
20260507012805 10 234 0.0 0.0 0.00 0.00 0.00 93 1006.0
20260507012606 10 234 0.0 0.0 0.00 0.00 0.00 93 1006.0
20260507012406 10 234 0.0 0.0 0.00 0.00 0.00 93 1006.0
20260507012206 10 234 0.0 0.0 0.00 0.00 0.00 92 1006.0
20260507012011 10 234 0.0 0.0 0.00 0.00 0.00 92 1006.0
20260507011807 10 234 0.0 0.0 0.00 0.00 0.00 91 1006.0
20260507011607 10 234 8.0 8.0 0.00 0.00 0.00 91 1006.0
20260507011406 11 234 0.0 0.0 0.00 0.00 0.00 91 1005.0
20260507011206 11 234 0.0 0.0 0.00 0.00 0.00 90 1005.0
20260507011010 11 234 0.0 0.0 0.00 0.00 0.00 90 1005.0
20260507010607 11 234 0.0 0.0 0.00 0.00 0.00 90 1005.0
20260507010407 11 234 9.7 9.7 0.00 0.00 0.00 89 1005.0
20260507010206 11 234 11.3 11.3 0.00 0.00 0.00 90 1005.0
20260507010019 11 234 9.7 9.7 0.00 0.00 0.00 89 1005.0
20260507005807 11 234 11.3 11.3 0.00 0.00 0.00 89 1005.0
20260507005606 11 234 8.0 8.0 0.00 0.00 0.00 89 1005.0
20260507005206 11 234 8.0 8.0 0.00 0.00 0.00 89 1005.0
20260507005010 11 234 0.0 0.0 0.00 0.00 0.00 89 1005.0
20260507004605 11 234 14.5 14.5 0.00 0.00 0.00 88 1005.0
20260507004406 11 234 0.0 0.0 0.00 0.00 0.00 88 1005.0
20260507004207 11 234 12.9 12.9 0.00 0.00 0.00 88 1005.0
20260507003806 11 228 14.5 14.5 0.00 0.00 0.00 87 1005.0
20260507003605 11 228 22.5 22.5 0.00 0.00 0.00 87 1005.0
20260507003406 11 222 24.1 24.1 0.00 0.00 0.00 87 1005.0
20260507003207 11 222 14.5 14.5 0.00 0.00 0.00 87 1005.0
20260507003014 11 228 12.9 12.9 0.00 0.00 0.00 87 1005.0
20260507002607 11 186 9.7 9.7 0.00 0.00 0.00 87 1005.0
20260507002406 11 186 12.9 12.9 0.00 0.00 0.00 87 1005.0
20260507002011 11 204 11.3 11.3 0.00 0.00 0.00 87 1005.0
20260507001807 11 204 12.9 12.9 0.00 0.00 0.00 86 1005.0
20260507001607 11 204 12.9 12.9 0.00 0.00 0.00 86 1005.0
20260507001406 11 186 9.7 9.7 0.00 0.00 0.00 86 1005.0
20260507001207 11 186 12.9 12.9 0.00 0.00 0.00 85 1005.0
20260507001012 11 222 11.3 11.3 0.00 0.00 0.00 85 1005.0
20260507000806 11 216 9.7 9.7 0.00 0.00 0.00 85 1005.0
20260507000607 11 192 14.5 14.5 0.00 0.00 0.00 85 1005.0
20260507000406 11 258 12.9 12.9 0.00 0.00 0.00 86 1005.0
20260507000207 11 270 14.5 14.5 0.00 0.00 0.00 86 1005.0
20260507000017 11 294 11.3 11.3 0.00 0.00 0.00 86 1005.0
20260506235806 11 306 9.7 9.7 0.00 0.00 0.00 86 1005.0
20260506235606 11 258 11.3 11.3 0.00 0.00 0.00 86 1005.0
20260506235406 11 258 9.7 9.7 0.00 0.00 0.00 85 1005.0
20260506235206 11 258 0.0 0.0 0.00 0.00 0.00 85 1005.0
20260506234607 11 258 9.7 9.7 0.00 0.00 0.00 84 1005.0
20260506234407 11 258 8.0 8.0 0.00 0.00 0.00 84 1005.0
20260506234206 11 246 11.3 11.3 0.00 0.00 0.00 83 1005.0
20260506233806 12 241 9.7 9.7 0.00 0.00 0.00 83 1005.0
20260506233606 12 240 8.0 8.0 0.00 0.00 0.00 82 1005.0
20260506233407 12 240 0.0 0.0 0.00 0.00 0.00 82 1005.0
20260506233206 12 240 14.5 14.5 0.00 0.00 0.00 82 1005.0
20260506233014 12 240 12.9 12.9 0.00 0.00 0.00 81 1005.0
20260506232806 12 228 11.3 11.3 0.00 0.00 0.00 82 1005.0
20260506232606 12 222 14.5 14.5 0.00 0.00 0.00 81 1005.0
20260506232407 12 216 24.1 24.1 0.00 0.00 0.00 81 1005.0
20260506232207 12 240 24.1 24.1 0.00 0.00 0.00 81 1005.0
20260506232010 12 276 14.5 14.5 0.00 0.00 0.00 81 1005.0
20260506231806 12 222 22.5 22.5 0.00 0.00 0.00 81 1005.0
20260506231606 12 240 22.5 22.5 0.00 0.00 0.00 80 1005.0
20260506231406 12 198 14.5 14.5 0.00 0.00 0.00 80 1005.0
20260506231206 12 264 24.1 24.1 0.00 0.00 0.00 81 1005.0
20260506230807 12 216 24.1 27.4 0.00 0.00 0.00 83 1005.0
20260506230406 12 204 14.5 14.5 0.00 0.00 0.00 84 1004.0
20260506230206 12 228 25.7 27.4 0.00 0.00 0.00 83 1004.0
20260506230017 12 222 22.5 22.5 0.00 0.00 0.00 84 1004.0
20260506225605 12 230 12.9 12.9 0.00 0.00 0.00 83 1004.0
20260506225407 12 230 9.7 9.7 0.00 0.00 0.00 83 1004.0
20260506225206 12 230 12.9 12.9 0.00 0.00 0.00 83 1004.0
20260506225010 12 234 12.9 12.9 0.00 0.00 0.00 82 1004.0
20260506223806 12 276 22.5 22.5 0.00 0.00 0.00 80 1004.0
20260506223606 12 281 22.5 22.5 0.00 0.00 0.00 80 1004.0
20260506223407 12 280 14.5 14.5 0.00 0.00 0.00 80 1003.0
20260506223207 13 288 14.5 14.5 0.00 0.00 0.00 79 1003.0
20260506223014 13 274 14.5 14.5 0.00 0.00 0.00 79 1004.0
20260506222806 13 276 14.5 14.5 0.00 0.00 0.00 78 1004.0
20260506222407 13 294 22.5 22.5 0.00 0.00 0.00 77 1004.0
20260506222206 13 264 25.7 27.4 0.00 0.00 0.00 77 1004.0
20260506222011 13 262 24.1 24.1 0.00 0.00 0.00 77 1003.0
20260506221605 13 288 35.4 40.2 0.00 0.00 0.00 76 1003.0
20260506221407 14 286 35.4 38.6 0.00 0.00 0.00 77 1004.0
20260506221011 13 270 22.5 22.5 0.00 0.00 0.00 77 1003.0
20260506220806 13 288 32.2 35.4 0.00 0.00 0.00 77 1003.0
20260506220606 13 246 35.4 38.6 0.00 0.00 0.00 77 1003.0
20260506220407 13 262 37.0 41.8 0.00 0.00 0.00 77 1003.0
20260506220020 14 274 46.7 48.3 0.00 0.00 0.00 76 1003.0
20260506215806 14 291 30.6 32.2 0.00 0.00 0.00 76 1003.0
20260506215611 14 234 30.6 32.2 0.00 0.00 0.00 77 1003.0
20260506215406 14 300 29.0 30.6 0.00 0.00 0.00 77 1003.0
20260506215206 14 279 32.2 35.4 0.00 0.00 0.00 77 1003.0
20260506215008 14 236 12.9 12.9 0.00 0.00 0.00 77 1003.0
20260506214606 14 222 0.0 0.0 0.00 0.00 0.00 76 1003.0
20260506214407 14 216 22.5 22.5 0.00 0.00 0.00 76 1003.0
20260506214206 14 198 27.4 29.0 0.00 0.00 0.00 75 1003.0
20260506214010 15 228 29.0 30.6 0.00 0.00 0.00 75 1003.0
20260506213806 15 230 14.5 14.5 0.00 0.00 0.00 74 1003.0
20260506213606 15 230 22.5 22.5 0.00 0.00 0.00 74 1003.0
20260506213407 15 240 14.5 14.5 0.00 0.00 0.00 73 1003.0
20260506213207 15 222 32.2 35.4 0.00 0.00 0.00 72 1003.0
20260506213015 15 210 25.7 29.0 0.00 0.00 0.00 71 1003.0
20260506212807 15 246 38.6 41.8 0.00 0.00 0.00 71 1003.0
20260506212605 15 204 29.0 30.6 0.00 0.00 0.00 71 1003.0
20260506212406 15 186 51.5 54.7 0.00 0.00 0.00 70 1003.0
20260506212205 15 216 25.7 29.0 0.00 0.00 0.00 69 1003.0
20260506212011 15 216 27.4 29.0 0.00 0.00 0.00 68 1003.0
20260506211806 15 162 24.1 27.4 0.00 0.00 0.00 68 1003.0
20260506211606 14 174 14.5 14.5 0.00 0.00 0.00 68 1003.0
20260506211411 14 174 27.4 29.0 0.00 0.00 0.00 69 1003.0
20260506211206 14 186 30.6 32.2 0.00 0.00 0.00 70 1003.0
20260506211010 14 186 8.0 8.0 0.00 0.00 0.00 70 1002.0
20260506210805 14 168 12.9 12.9 0.00 0.00 0.00 70 1002.0
20260506210605 14 180 14.5 14.5 0.00 0.00 0.00 70 1002.0
20260506210207 14 186 0.0 0.0 0.00 0.00 0.00 70 1002.0
20260506210018 14 174 14.5 14.5 0.00 0.00 0.00 71 1002.0
20260506205806 15 174 12.9 12.9 0.00 0.00 0.00 70 1002.0
20260506205406 15 174 8.0 8.0 0.00 0.00 0.00 68 1002.0
20260506205206 15 174 12.9 12.9 0.00 0.00 0.00 68 1002.0
20260506205011 15 132 9.7 9.7 0.00 0.00 0.00 68 1002.0
20260506204806 15 132 0.0 0.0 0.00 0.00 0.00 67 1002.0
20260506204407 16 132 0.0 0.0 0.00 0.00 0.00 67 1002.0
20260506204206 16 132 0.0 0.0 0.00 0.00 0.00 67 1002.0
20260506203806 16 132 0.0 0.0 0.00 0.00 0.00 66 1002.0
20260506203607 16 132 0.0 0.0 0.00 0.00 0.00 66 1002.0
20260506203407 16 185 0.0 0.0 0.00 0.00 0.00 66 1002.0
20260506203207 16 186 0.0 0.0 0.00 0.00 0.00 66 1002.0
20260506203015 16 186 8.0 8.0 0.00 0.00 0.00 66 1002.0
20260506202807 16 186 0.0 0.0 0.00 0.00 0.00 66 1002.0
20260506202606 16 186 0.0 0.0 0.00 0.00 0.00 66 1002.0
20260506202406 16 192 0.0 0.0 0.00 0.00 0.00 65 1002.0
20260506202206 16 192 0.0 0.0 0.00 0.00 0.00 65 1002.0
20260506202011 16 174 0.0 0.0 0.00 0.00 0.00 65 1002.0
20260506201806 16 174 0.0 0.0 0.00 0.00 0.00 65 1002.0
20260506201406 16 180 0.0 0.0 0.00 0.00 0.00 65 1002.0
20260506201206 16 180 0.0 0.0 0.00 0.00 0.00 65 1002.0
20260506201011 16 185 0.0 0.0 0.00 0.00 0.00 65 1002.0
20260506200806 16 185 0.0 0.0 0.00 0.00 0.00 65 1002.0
20260506200606 16 185 0.0 0.0 0.00 0.00 0.00 64 1002.0
20260506200407 16 180 0.0 0.0 0.00 0.00 0.00 64 1002.0
20260506200207 16 180 0.0 0.0 0.00 0.00 0.00 64 1002.0
20260506200017 16 186 0.0 0.0 0.00 0.00 0.00 64 1002.0
20260506195610 16 186 0.0 0.0 0.00 0.00 0.00 63 1002.0
20260506195407 16 180 0.0 0.0 0.00 0.00 0.00 63 1002.0
20260506195208 16 186 0.0 0.0 0.00 0.00 0.00 63 1002.0
20260506195011 17 186 0.0 0.0 0.00 0.00 0.00 63 1002.0
20260506194807 17 186 0.0 0.0 0.00 0.00 0.00 62 1002.0
20260506194607 17 180 0.0 0.0 0.00 0.00 0.00 62 1002.0
20260506194407 17 162 8.0 8.0 0.00 0.00 0.00 62 1002.0
20260506194206 17 126 0.0 0.0 0.00 0.00 0.00 62 1002.0
20260506194012 17 126 0.0 0.0 0.00 0.00 0.00 61 1002.0
20260506193405 17 174 0.0 0.0 0.00 0.00 0.00 61 1002.0
20260506193207 17 174 0.0 0.0 0.00 0.00 0.00 61 1002.0
20260506193011 17 61 0.0 0.0 0.00 0.00 0.00 60 1002.0
20260506192805 17 48 14.5 14.5 0.00 0.00 0.00 61 1002.0
20260506192607 17 186 0.0 0.0 0.00 0.00 0.00 60 1002.0
20260506192205 17 72 0.0 0.0 0.00 0.00 0.00 60 1002.0
20260506191807 17 138 8.0 8.0 0.00 0.00 0.00 60 1002.0
20260506191607 17 186 11.3 11.3 0.00 0.00 0.00 60 1002.0
20260506191405 17 162 0.0 0.0 0.00 0.00 0.00 59 1002.0
20260506191207 17 180 0.0 0.0 0.00 0.00 0.00 59 1002.0
20260506191012 17 162 0.0 0.0 0.00 0.00 0.00 59 1001.0
20260506190807 17 216 8.0 8.0 0.00 0.00 0.00 59 1001.0
20260506190407 17 132 0.0 0.0 0.00 0.00 0.00 58 1002.0
20260506190206 17 180 0.0 0.0 0.00 0.00 0.00 58 1002.0
20260506190019 17 204 12.9 12.9 0.00 0.00 0.00 58 1002.0